Oscoda, MI

2:15 AM EDT on October 23, 2019 (GMT -0400)
Oscoda-Wurtsmith

Weather History for KOSC - September, 2019

Change the Weather History Date:

Wednesday, September 18, 2019

  Actual Average Record
Temperature  
Mean Temperature 66 °F -  
Max Temperature 78 °F 68 °F 82 °F (2007)
Min Temperature 53 °F 48 °F 33 °F (2011)
Growing Degree Days 16 (Base 50)    
Moisture  
Dew Point 56 °F    
Average Humidity 74    
Maximum Humidity 100    
Minimum Humidity 43    
Precipitation  
Precipitation 0.00 in - - ()
Sea Level Pressure  
Sea Level Pressure 30.19 in    
Wind  
Wind Speed 4 mph (South)    
Max Wind Speed 13 mph    
Max Gust Speed 16 mph    
Visibility 7 miles    
Events Fog    
Averages and records for this station are not official NWS values.
T = Trace of Precipitation, MM = Missing Value Source: NWS Daily Summary

Daily Weather History Graph

Daily Weather History Graph

Search for Another Location

Airport or City:

Astronomy

Sep. 18, 2019 Rise Set
Actual Time 7:15 AM EDT 7:38 PM EDT
Civil Twilight 6:46 AM EDT 8:07 PM EDT
Nautical Twilight 6:12 AM EDT 8:42 PM EDT
Astronomical Twilight 5:36 AM EDT 9:17 PM EDT
Moon 10:02 PM EDT (9/18) 11:26 AM EDT (9/18)
Length of Visible Light 13h 21m
Length of Day
12h 23m
Waning Gibbous, 82% of the Moon is Illuminated
Sep 18
Waning Gibbous
Sep 21
Last Quarter
Sep 28
New
Oct 5
First Quarter
Oct 13
Full

Hourly Weather History & Observations

Time (EDT) Temp. Dew Point Humidity Pressure Visibility Wind Dir Wind Speed Gust Speed Precip Events Conditions
12:15 AM 55.4 °F 55.4 °F 100% 30.20 in 1.8 mi Calm Calm - N/A   Scattered Clouds
12:39 AM 54.7 °F 54.7 °F 100% 30.19 in 0.2 mi WSW 3.5 mph - N/A Fog Fog
12:57 AM 56.3 °F 56.3 °F 100% 30.18 in 0.2 mi Calm Calm - N/A Fog Fog
1:15 AM 56.3 °F 56.3 °F 100% 30.18 in 0.2 mi WSW 3.5 mph - N/A Fog Fog
1:16 AM 56.3 °F 56.3 °F 100% 30.18 in 0.2 mi WSW 3.5 mph - N/A Fog Fog
1:35 AM 56.3 °F 56.3 °F 100% 30.20 in 0.2 mi West 3.5 mph - N/A Fog Fog
1:55 AM 57.0 °F 57.0 °F 100% 30.20 in 0.2 mi Calm Calm - N/A Fog Fog
2:18 AM 57.2 °F 57.2 °F 100% 30.20 in 0.2 mi Calm Calm - N/A Fog Fog
2:36 AM 58.3 °F 58.3 °F 100% 30.20 in 0.2 mi Calm Calm - N/A Fog Fog
2:55 AM 58.1 °F 58.1 °F 100% 30.20 in 0.2 mi Calm Calm - N/A Fog Fog
3:15 AM 58.1 °F 58.1 °F 100% 30.20 in 0.2 mi Calm Calm - N/A Fog Fog
3:39 AM 57.2 °F 57.2 °F 100% 30.20 in 0.2 mi Calm Calm - N/A Fog Fog
3:57 AM 55.9 °F 55.9 °F 100% 30.19 in 1.2 mi Calm Calm - N/A   Overcast
4:15 AM 55.4 °F 55.4 °F 100% 30.19 in 0.5 mi Calm Calm - N/A Fog Fog
4:16 AM 55.4 °F 55.4 °F 100% 30.19 in 0.5 mi Calm Calm - N/A Fog Fog
4:35 AM 55.8 °F 55.8 °F 100% 30.19 in 0.5 mi Calm Calm - N/A Fog Fog
4:36 AM 55.8 °F 55.8 °F 100% 30.19 in 0.5 mi Calm Calm - N/A Fog Fog
4:55 AM 55.2 °F 55.2 °F 100% 30.19 in 1.2 mi Calm Calm - N/A   Mostly Cloudy
5:18 AM 56.8 °F 56.8 °F 100% 30.19 in 0.5 mi Calm Calm - N/A Fog Fog
5:36 AM 56.1 °F 56.1 °F 100% 30.19 in 0.2 mi SW 3.5 mph - N/A Fog Fog
5:55 AM 53.8 °F 53.8 °F 100% 30.19 in 0.2 mi WSW 4.6 mph - N/A Fog Fog
5:56 AM 54.0 °F 54.0 °F 100% 30.19 in 0.2 mi WSW 4.6 mph - N/A Fog Fog
6:15 AM 54.1 °F 54.1 °F 100% 30.19 in 0.2 mi WSW 3.5 mph - N/A Fog Fog
6:39 AM 55.0 °F 55.0 °F 100% 30.20 in 1.5 mi Calm Calm - N/A   Mostly Cloudy
6:57 AM 54.9 °F 54.9 °F 100% 30.20 in 0.5 mi Calm Calm - N/A Fog Fog
7:15 AM 54.9 °F 54.9 °F 100% 30.20 in 0.2 mi Calm Calm - N/A Fog Fog
7:16 AM 54.5 °F 54.5 °F 100% 30.20 in 0.2 mi Calm Calm - N/A Fog Fog
7:35 AM 54.1 °F 54.1 °F 100% 30.20 in 0.2 mi Calm Calm - N/A Fog Fog
7:36 AM 54.1 °F 54.1 °F 100% 30.20 in 0.2 mi Calm Calm - N/A Fog Fog
7:55 AM 54.7 °F 54.7 °F 100% 30.21 in 0.2 mi Calm Calm - N/A Fog Fog
8:17 AM 56.7 °F 56.7 °F 100% 30.22 in 1.8 mi Calm Calm - N/A   Mostly Cloudy
8:36 AM 57.6 °F 57.6 °F 100% 30.22 in 7.0 mi Calm Calm - N/A   Clear
8:55 AM 59.2 °F 59.2 °F 100% 30.21 in 10.0 mi Calm Calm - N/A   Clear
8:56 AM 59.2 °F 59.2 °F 100% 30.21 in 10.0 mi Calm Calm - N/A   Clear
9:15 AM 62.2 °F 62.2 °F 100% 30.21 in 10.0 mi SSE 3.5 mph - N/A   Clear
9:39 AM 64.4 °F 63.9 °F 98% 30.21 in 10.0 mi SSE 4.6 mph - N/A   Clear
9:57 AM 66.4 °F 63.7 °F 91% 30.22 in 10.0 mi South 6.9 mph - N/A   Clear
10:15 AM 66.9 °F 62.8 °F 87% 30.21 in 10.0 mi South 5.8 mph - N/A   Clear
10:35 AM 68.5 °F 63.0 °F 82% 30.21 in 10.0 mi South 4.6 mph - N/A   Clear
10:36 AM 68.7 °F 63.0 °F 82% 30.21 in 10.0 mi South 4.6 mph - N/A   Clear
10:55 AM 71.8 °F 58.5 °F 63% 30.22 in 10.0 mi South 9.2 mph - N/A   Clear
11:18 AM 73.2 °F 56.8 °F 56% 30.22 in 10.0 mi South 6.9 mph - N/A   Clear
11:36 AM 74.5 °F 56.8 °F 54% 30.22 in 10.0 mi SSW 11.5 mph - N/A   Clear
11:55 AM 74.3 °F 56.5 °F 54% 30.22 in 10.0 mi SSW 9.2 mph - N/A   Clear
11:56 AM 74.3 °F 56.7 °F 54% 30.22 in 10.0 mi SSW 8.1 mph - N/A   Clear
12:15 PM 75.6 °F 55.2 °F 49% 30.22 in 10.0 mi SSW 10.4 mph - N/A   Clear
12:39 PM 76.8 °F 55.0 °F 47% 30.21 in 10.0 mi SSW 11.5 mph - N/A   Clear
12:57 PM 76.8 °F 54.9 °F 46% 30.21 in 10.0 mi SSW 9.2 mph - N/A   Clear
1:15 PM 77.7 °F 55.0 °F 45% 30.21 in 10.0 mi SSW 10.4 mph - N/A   Clear
1:16 PM 77.9 °F 55.0 °F 45% 30.21 in 10.0 mi SW 10.4 mph - N/A   Clear
1:35 PM 78.1 °F 55.8 °F 46% 30.21 in 10.0 mi South 10.4 mph - N/A   Clear
1:36 PM 78.1 °F 55.6 °F 46% 30.21 in 10.0 mi South 11.5 mph - N/A   Clear
1:55 PM 77.5 °F 54.1 °F 44% 30.21 in 10.0 mi South 12.7 mph - N/A   Clear
2:00 PM 77.4 °F 54.3 °F 45% 30.21 in 10.0 mi South 10.4 mph 16.1 mph N/A   Clear
2:18 PM 77.7 °F 54.5 °F 45% 30.20 in 10.0 mi SSE 12.7 mph - N/A   Clear
2:36 PM 78.1 °F 54.5 °F 44% 30.20 in 10.0 mi South 11.5 mph - N/A   Clear
2:55 PM 78.3 °F 54.7 °F 44% 30.20 in 10.0 mi South 10.4 mph - N/A   Clear
2:56 PM 78.1 °F 54.7 °F 44% 30.20 in 10.0 mi South 11.5 mph - N/A   Clear
3:15 PM 78.4 °F 54.1 °F 43% 30.19 in 10.0 mi South 12.7 mph - N/A   Clear
3:39 PM 76.1 °F 60.8 °F 59% 30.19 in 10.0 mi ESE 6.9 mph - N/A   Clear
3:57 PM 75.7 °F 60.3 °F 59% 30.18 in 10.0 mi ESE 8.1 mph - N/A   Clear
4:15 PM 76.5 °F 59.7 °F 56% 30.18 in 10.0 mi SE 5.8 mph - N/A   Clear
4:16 PM 76.5 °F 59.7 °F 56% 30.18 in 10.0 mi ESE 6.9 mph - N/A   Clear
4:35 PM 76.8 °F 60.1 °F 56% 30.18 in 10.0 mi SE 8.1 mph - N/A   Clear
4:55 PM 76.1 °F 60.8 °F 59% 30.18 in 10.0 mi ESE 5.8 mph - N/A   Clear
5:18 PM 75.4 °F 60.8 °F 60% 30.17 in 10.0 mi ESE 8.1 mph - N/A   Clear
5:36 PM 74.1 °F 59.4 °F 60% 30.16 in 10.0 mi SE 6.9 mph - N/A   Clear
5:55 PM 73.4 °F 58.5 °F 59% 30.16 in 10.0 mi SE 6.9 mph - N/A   Clear
6:15 PM 73.4 °F 58.1 °F 59% 30.16 in 10.0 mi SE 5.8 mph - N/A   Clear
6:16 PM 73.4 °F 58.1 °F 59% 30.16 in 10.0 mi SE 6.9 mph - N/A   Clear
6:39 PM 72.5 °F 58.6 °F 62% 30.15 in 10.0 mi SE 5.8 mph - N/A   Clear
6:57 PM 71.8 °F 59.0 °F 64% 30.15 in 10.0 mi SE 5.8 mph - N/A   Clear
7:15 PM 70.7 °F 59.2 °F 67% 30.15 in 10.0 mi SE 3.5 mph - N/A   Clear
7:16 PM 70.7 °F 59.2 °F 67% 30.15 in 10.0 mi SE 3.5 mph - N/A   Clear
7:35 PM 69.4 °F 59.9 °F 72% 30.15 in 10.0 mi SE 4.6 mph - N/A   Clear
7:55 PM 68.7 °F 59.9 °F 73% 30.15 in 10.0 mi SE 5.8 mph - N/A   Clear
8:18 PM 69.4 °F 57.7 °F 66% 30.15 in 10.0 mi SSE 11.5 mph - N/A   Clear
8:36 PM 69.8 °F 55.4 °F 60% 30.16 in 10.0 mi SSE 10.4 mph - N/A   Clear
8:55 PM 69.8 °F 54.0 °F 57% 30.16 in 10.0 mi SSE 9.2 mph - N/A   Clear
8:56 PM 69.8 °F 54.0 °F 57% 30.16 in 10.0 mi SSE 9.2 mph - N/A   Clear
9:15 PM 69.3 °F 53.4 °F 57% 30.17 in 10.0 mi South 9.2 mph - N/A   Clear
9:39 PM 69.1 °F 52.3 °F 55% 30.17 in 10.0 mi South 8.1 mph - N/A   Clear
9:57 PM 68.7 °F 51.8 °F 55% 30.17 in 10.0 mi South 8.1 mph - N/A   Clear
10:15 PM 68.5 °F 50.9 °F 53% 30.17 in 10.0 mi South 10.4 mph - N/A   Clear
10:16 PM 68.5 °F 50.7 °F 53% 30.17 in 10.0 mi South 11.5 mph - N/A   Clear
10:35 PM 68.2 °F 50.2 °F 53% 30.17 in 10.0 mi South 9.2 mph - N/A   Clear
10:55 PM 67.5 °F 50.7 °F 55% 30.17 in 10.0 mi South 6.9 mph - N/A   Clear
11:18 PM 66.9 °F 50.7 °F 56% 30.17 in 10.0 mi South 6.9 mph - N/A   Clear
11:36 PM 66.4 °F 50.7 °F 57% 30.17 in 10.0 mi South 8.1 mph - N/A   Clear
11:55 PM 66.0 °F 51.1 °F 59% 30.17 in 10.0 mi South 5.8 mph - N/A   Clear